Location: Bacharowice
(49.9333°N, 19.5833°E)
Time: 21:38:57
(UTC+00:00)

CZ-4 R/B - Pass Details

Date: 11 May 2021
Orbit: 680 x 753 km, 98.5° (Epoch: 20 June)

Event Time Altitude Azimuth Distance (km) Brightness Sun altitude
Rises 23:24:58 0° 17° (NNE) 3,165 8.7 -21.1°
Reaches altitude 10° 23:27:19 10° 22° (NNE) 2,228 7.5 -21.1°
Maximum altitude 23:32:08 57° 101° (E) 844 4.2 -20.9°
Enters shadow 23:33:30 41° 155° (SSE) 1,026 4.3 -20.8°
